Location: Arroyo Retuerta
(40.5469°N, 4.3534°W)
Time: 12:05:34
(UTC+00:00)

Cosmos 1992 Rocket - Pass Details

Date: 01 June 2020
Orbit: 758 x 766 km, 74.0° (Epoch: 05 July)

Event Time Altitude Azimuth Distance (km) Brightness Sun altitude
Exits shadow 23:16:14 52° 245° (WSW) 938 4.3 -25.7°
Maximum altitude 23:17:11 62° 291° (WNW) 853 4.3 -25.8°
Drops below altitude 10° 23:22:21 10° 13° (NNE) 2,297 7.3 -26.0°
Sets 23:24:46 0° 16° (NNE) 3,228 8.2 -26.1°
